Temperature
22 21 21 20 19 19 20 22 24 25 25 26 26 25 24 24 23 21 21 21 22 21 21 21 21 21 20 20 20 20 20 20 19 19 19 19 19 19 19 19 19 19 19 19 19 19 19 19 18
22 21 21 20 19 20 21 22 24 25 26 25 25 25 24 22 21 20 20 22 22 22 21 21 21 21 20 20 20 20 20 19 19 19 19 19 19 19 19 19 19 19 19 19 19 19 19 19 18
22 21 20 19 20 21 22 24 25 26 26 26 25 24 23 22 21 20 21 22 22 21 21 21 21 20 20 20 20 20 20 19 19 19 19 19 19 19 19 19 19 19 19 19 19 19 19 19 18
22 21 20 19 21 23 24 25 26 26 26 26 24 23 22 22 22 22 21 22 22 21 21 21 21 20 20 20 20 20 20 19 19 19 19 19 19 19 19 19 19 19 19 19 19 19 19 19 19
22 21 20 20 22 25 26 26 26 26 26 24 24 22 21 22 22 22 21 21 22 21 21 21 20 20 20 20 20 20 20 19 19 19 19 19 19 19 19 19 19 19 19 19 19 19 19 19 19
22 21 20 21 24 26 26 27 26 25 25 24 23 21 20 21 22 21 21 22 22 21 21 20 20 20 20 20 20 20 20 19 19 19 19 19 19 19 19 19 19 19 19 19 19 19 19 19 19
22 20 21 23 24 26 27 27 26 25 24 23 23 21 20 20 21 21 21 21 21 21 21 21 20 20 20 20 20 20 20 19 19 19 19 19 19 19 19 19 19 19 19 19 19 19 19 19 19
24 21 22 23 24 25 27 26 25 24 23 23 23 21 20 20 20 21 21 21 21 21 21 21 20 20 20 20 20 20 20 19 19 19 19 19 19 19 18 18 18 18 19 19 19 19 19 19 19
25 21 21 23 24 25 26 26 25 24 23 22 22 22 22 21 20 20 20 20 20 20 20 20 20 20 20 20 20 20 19 19 19 19 19 19 18 18 18 18 18 18 18 18 18 18 19 19 19
25 21 23 25 26 25 26 25 25 23 22 21 21 22 21 21 20 20 20 20 20 20 20 20 20 20 20 19 19 19 19 19 19 19 18 18 18 18 18 18 18 18 18 18 18 18 18 18 18
25 23 25 26 27 26 25 25 24 23 21 21 21 21 21 21 21 20 20 20 20 20 20 20 20 20 19 19 19 19 19 18 18 18 18 18 18 18 18 18 18 18 18 18 18 18 18 18 18
25 26 27 27 27 26 25 24 23 22 21 21 21 21 20 20 20 20 19 19 20 20 19 19 19 19 19 19 19 19 19 18 18 18 18 18 18 18 18 18 18 17 17 17 17 17 17 18 18
26 26 27 27 26 25 24 23 22 21 21 21 21 20 20 20 19 20 20 19 19 19 19 19 19 19 19 18 18 19 18 18 18 18 18 18 18 18 18 18 17 17 17 17 17 17 17 17 17
26 27 26 26 26 25 23 22 21 19 20 21 20 20 20 20 19 20 19 19 19 19 19 19 19 19 19 18 18 18 18 18 18 18 18 18 18 18 17 17 17 17 17 17 17 17 17 17 17
27 25 24 25 25 24 24 21 20 19 19 19 19 19 19 19 19 20 20 19 19 19 19 19 19 19 18 18 18 18 18 18 18 18 18 18 18 17 17 17 17 17 16 16 16 16 16 16 16
24 23 23 24 24 23 23 20 20 19 19 18 18 19 19 19 19 20 20 19 19 19 19 19 18 18 18 18 18 18 18 18 18 18 18 18 17 17 17 17 17 16 16 16 16 16 16 16 16
22 22 23 23 23 23 21 20 19 19 18 17 18 18 18 19 19 19 19 19 19 19 19 19 18 18 18 18 18 18 18 17 17 17 17 17 17 17 17 17 16 16 16 16 16 16 16 16 16
22 23 23 23 23 22 20 19 19 19 18 17 18 18 18 19 19 19 19 19 19 19 19 19 18 18 18 18 18 18 17 17 17 17 17 17 17 17 16 16 16 16 16 15 15 15 15 15 15
25 24 23 23 23 22 20 19 19 18 18 17 17 17 18 18 18 18 19 19 19 19 19 18 18 18 18 18 18 18 17 17 17 17 17 16 16 16 16 16 16 15 15 15 15 15 15 15 15
25 24 23 23 23 21 20 19 19 18 18 18 18 17 18 18 18 18 18 18 19 18 18 18 18 18 18 18 18 17 17 17 17 16 16 16 16 16 15 15 15 15 15 15 14 14 14 14 14
25 24 24 22 22 21 20 19 19 19 19 19 18 18 18 18 19 18 19 19 18 18 18 18 18 18 18 18 17 17 17 17 16 16 16 16 16 15 15 15 15 15 14 14 14 14 14 14 14
24 25 24 23 20 19 20 18 19 18 18 18 18 18 18 19 19 19 19 18 18 18 18 18 18 18 18 17 17 17 17 17 16 16 16 15 15 15 15 15 14 14 14 14 13 13 13 13 13
24 24 23 21 19 18 19 18 18 18 18 18 18 19 19 19 19 19 19 19 19 19 18 18 18 18 17 17 17 17 16 16 16 15 15 15 15 15 14 14 14 14 13 13 13 13 13 13 12
24 22 20 18 18 18 19 18 18 18 18 19 19 19 20 20 20 20 19 19 19 19 18 18 18 18 17 17 17 16 16 16 15 15 15 15 14 14 14 14 13 13 13 13 12 12 12 12 12
24 20 19 20 18 18 19 19 18 19 20 19 19 20 20 20 20 20 19 19 19 19 19 18 18 17 17 17 16 16 16 15 15 15 14 14 14 14 13 13 13 13 12 12 12 12 12 11 11
24 21 20 20 19 18 18 18 19 21 21 21 21 20 20 20 20 20 20 20 20 19 19 18 18 17 17 16 16 16 15 15 15 14 14 14 13 13 13 13 12 12 12 12 12 11 11 11 11
24 22 20 19 19 18 18 19 20 21 20 20 20 20 21 21 21 21 20 20 20 19 19 19 18 18 17 16 16 15 15 15 14 14 14 13 13 13 12 12 12 12 12 11 11 11 11 11 11
24 22 19 19 19 18 19 19 18 20 19 20 20 20 21 21 21 21 21 20 20 20 19 19 18 18 17 16 16 16 15 15 14 14 14 13 13 12 12 12 12 12 11 11 11 11 11 11 11
23 22 20 18 18 18 18 18 20 20 20 20 20 21 21 21 21 21 21 21 20 20 19 19 18 18 17 17 16 16 15 15 14 14 13 13 13 12 12 12 12 11 11 11 11 11 11 10 10
23 22 20 19 19 18 18 19 22 21 21 21 22 22 22 22 22 22 21 20 20 20 19 19 18 18 17 17 16 16 15 15 14 14 13 13 13 12 12 12 11 11 11 11 11 11 10 10 10
Wind_Speed
9 7 3 0 2 3 3 5 4 5 3 4 5 9 8 5 4 5 5 15 19 17 18 21 22 22 22 22 21 20 20 19 19 19 19 18 18 17 16 16 15 15 14 13 13 12 12 12 12
7 5 1 2 2 1 5 6 6 5 2 4 6 8 8 8 8 9 7 15 19 17 18 19 22 22 22 22 21 20 20 19 18 18 18 17 17 16 16 15 14 14 13 13 12 12 11 11 11
5 4 2 1 2 4 5 7 8 5 2 2 4 5 5 6 7 5 10 17 16 14 17 21 23 22 22 21 21 20 19 19 18 17 17 16 16 15 15 14 14 13 13 12 11 11 10 10 9
2 2 1 1 6 8 8 9 7 2 4 4 7 6 5 4 5 12 18 17 16 11 16 21 22 22 21 21 20 20 19 18 17 17 16 16 15 15 14 13 13 13 12 11 10 10 9 8 8
2 3 1 3 7 6 7 9 6 3 4 6 8 8 5 4 17 20 17 17 16 12 14 19 22 22 21 20 20 19 18 18 17 16 15 15 14 14 13 13 12 12 11 11 10 9 8 7 6
1 2 1 4 6 5 3 5 5 8 8 8 9 8 4 6 16 16 17 16 15 14 13 18 21 21 20 20 19 19 18 17 16 15 14 14 13 13 12 12 11 11 11 10 9 8 7 6 5
3 1 3 5 6 5 2 2 6 7 9 6 8 7 5 6 11 15 15 14 13 13 12 13 17 19 19 19 18 18 17 16 15 15 14 13 12 11 11 11 11 10 10 10 9 8 7 6 4
5 2 4 5 5 5 3 4 5 6 6 6 5 8 8 8 11 14 14 12 12 10 9 10 13 14 15 16 17 17 16 15 14 13 12 11 11 10 10 10 9 9 10 9 9 8 7 6 5
2 1 6 6 4 3 1 5 4 6 8 4 3 5 10 15 15 15 14 11 10 10 8 8 9 11 13 13 15 15 14 14 13 11 11 10 8 8 9 9 9 9 9 9 9 8 7 6 5
5 4 9 7 4 2 2 4 4 6 8 6 7 8 13 15 15 16 15 13 11 11 9 8 8 9 11 11 11 10 10 10 10 9 8 7 6 7 8 9 10 10 9 9 8 8 7 6 5
5 7 8 6 4 1 2 3 4 9 6 7 10 12 12 12 12 14 14 13 12 12 10 8 8 9 9 7 9 7 7 7 7 8 8 7 5 4 5 5 6 7 7 6 6 6 6 6 6
5 7 6 4 2 2 2 3 6 5 5 9 11 11 10 11 10 11 12 10 10 10 9 9 8 7 7 8 6 6 6 5 5 7 8 7 4 3 4 3 3 3 4 4 5 5 5 5 6
2 3 2 1 3 4 7 7 7 7 8 10 12 11 10 10 9 8 9 9 9 8 8 8 8 8 6 6 5 5 5 6 7 7 7 8 5 3 3 3 3 2 3 3 3 3 3 3 3
4 4 4 2 3 3 8 6 7 5 7 10 10 8 7 8 9 8 8 9 8 8 9 8 9 9 7 5 4 4 5 6 7 7 8 8 7 5 4 3 2 2 2 2 2 2 2 2 2
5 6 7 4 2 2 6 9 7 5 8 9 8 7 7 6 7 8 9 9 9 9 8 8 8 8 8 6 5 6 5 6 5 6 8 8 7 6 5 3 2 1 1 1 1 0 0 0 1
5 5 4 5 2 3 6 4 4 6 8 8 7 7 6 3 5 7 8 8 8 9 8 7 8 7 7 6 5 5 6 5 5 6 7 7 7 8 6 3 2 1 2 1 1 1 1 1 1
4 2 4 5 3 3 6 4 3 6 7 7 7 5 5 3 4 5 6 7 8 9 8 7 7 7 6 6 5 5 5 4 5 6 6 6 6 7 6 3 3 4 3 2 1 2 1 1 2
6 3 3 2 2 6 7 5 3 5 6 5 6 6 5 5 5 5 7 7 7 7 8 7 7 6 6 5 5 4 3 2 4 4 5 6 6 7 7 4 4 4 3 2 2 1 1 1 2
6 2 1 1 2 4 6 5 4 4 5 6 6 7 7 6 5 5 7 8 8 7 7 6 7 6 5 4 4 3 2 2 2 2 4 5 6 6 6 3 3 3 3 2 1 1 2 2 2
2 0 0 2 3 5 5 3 3 5 7 8 9 9 10 8 7 7 7 7 8 7 6 6 6 6 5 3 3 3 3 2 2 2 3 4 5 5 4 4 3 3 3 3 3 2 1 2 2
1 2 3 5 4 4 5 2 1 2 5 6 7 7 9 11 10 9 8 7 8 8 7 7 6 6 5 4 3 4 4 4 3 2 1 1 2 3 4 4 4 3 3 2 1 2 2 1 2
2 2 6 7 5 1 2 1 4 3 4 6 7 7 9 10 10 9 10 9 9 8 7 7 7 6 5 5 5 5 4 3 1 1 0 1 2 1 2 4 4 3 3 2 1 2 1 2 1
2 3 6 6 5 3 3 2 4 2 5 8 10 10 11 11 12 11 11 10 9 9 9 8 7 6 5 6 6 7 5 3 2 2 3 3 3 3 3 4 4 3 2 2 1 1 0 1 2
7 6 6 6 5 3 1 1 4 4 7 9 11 12 12 12 11 11 10 10 9 9 9 8 8 6 6 7 7 7 7 5 4 4 3 2 2 3 3 5 4 3 1 1 0 0 1 1 1
4 5 4 5 5 2 2 1 7 7 8 10 12 12 13 12 12 12 11 11 10 10 10 9 9 7 6 7 7 7 7 6 6 4 3 2 1 1 2 2 2 1 0 1 0 0 1 2 2
3 7 6 4 3 2 2 3 7 6 8 10 11 11 13 13 13 14 14 13 12 12 11 10 9 8 7 7 6 6 6 5 4 4 4 3 2 2 1 2 1 0 1 1 0 1 2 2 2
3 3 7 6 3 2 3 5 6 1 6 9 12 13 14 14 15 15 14 13 13 13 12 12 11 9 8 8 7 6 6 6 5 5 4 3 3 3 3 1 0 1 2 2 1 2 3 3 3
5 5 6 5 5 2 3 4 5 7 9 10 12 14 15 14 15 14 13 13 12 12 11 11 11 10 9 8 7 6 7 7 6 4 4 4 3 2 2 1 2 2 3 3 2 3 4 3 4
2 2 5 5 6 6 4 7 8 13 13 13 14 15 17 16 16 14 13 12 12 12 12 11 10 9 8 8 7 7 6 6 6 5 5 4 3 3 3 3 3 4 4 4 3 4 4 4 5
3 5 6 5 3 5 5 7 7 13 14 14 14 14 14 15 15 15 14 13 12 12 12 11 10 10 9 8 7 7 6 6 5 5 5 4 4 4 4 4 4 4 4 4 4 5 5 5 6
Wind_Direction
176 175 182 15 38 43 292 269 256 296 318 20 77 109 114 101 127 133 120 136 134 140 145 143 140 137 135 132 130 128 126 124 123 122 121 120 119 119 118 117 116 114 113 112 110 108 108 106 105
169 180 165 39 75 44 284 275 282 273 195 92 61 83 85 73 84 101 115 135 135 137 140 142 141 139 138 136 134 133 132 130 129 128 127 125 125 124 124 122 120 118 117 116 115 112 111 109 107
191 187 157 116 182 190 241 257 248 255 233 148 107 57 62 90 97 105 132 135 130 132 137 143 141 140 139 138 136 136 136 135 135 134 133 132 131 130 129 127 125 123 121 120 119 117 115 112 107
166 122 67 161 237 231 221 243 238 233 44 69 111 81 66 75 103 126 132 133 128 127 134 141 140 139 139 140 139 139 139 139 140 140 139 138 137 136 135 134 132 130 128 126 125 123 121 118 112
123 114 110 275 260 255 235 222 214 96 97 71 90 87 59 57 113 126 132 133 130 129 133 139 139 139 139 139 141 142 142 142 143 142 143 143 143 143 142 141 141 139 136 134 133 131 131 128 122
73 110 120 273 275 284 255 215 144 103 112 102 85 84 64 108 121 131 131 133 135 135 133 138 139 139 140 141 142 143 143 144 145 145 146 147 148 148 147 147 147 147 146 145 146 146 144 145 140
162 161 237 263 287 309 323 111 108 119 113 119 128 113 123 134 132 131 129 130 130 133 132 134 139 140 141 141 142 143 145 147 148 150 152 153 154 155 155 155 156 157 157 159 160 163 163 165 170
176 110 298 289 295 312 340 87 99 109 101 119 120 133 151 158 133 125 122 122 127 131 132 132 135 137 139 143 145 147 149 152 153 154 157 158 159 162 165 166 169 172 173 174 175 177 181 183 193
184 63 272 265 269 270 350 76 77 81 101 96 93 126 139 139 129 124 119 119 133 138 141 139 138 140 141 145 151 151 153 157 156 158 162 161 161 168 176 181 184 185 185 187 189 192 195 197 211
156 189 242 240 228 210 43 71 110 101 92 89 87 98 123 133 135 135 137 143 147 151 156 154 150 149 151 152 148 151 154 158 156 157 159 158 169 183 188 196 196 195 194 196 199 201 199 205 223
195 210 248 262 239 154 76 60 79 122 109 142 143 141 136 134 134 141 147 155 157 157 160 159 160 160 158 145 149 150 151 157 162 163 163 156 152 155 165 175 196 205 200 198 202 204 207 210 220
227 250 255 268 298 33 71 95 76 85 130 138 128 129 129 132 133 136 133 148 151 149 149 153 155 147 142 135 145 150 150 153 156 157 157 145 129 123 136 145 164 182 184 191 191 197 216 221 230
261 280 313 30 60 83 80 74 89 84 101 114 118 122 133 131 124 120 131 140 141 137 141 146 136 127 120 120 134 133 137 145 149 143 147 144 134 135 135 127 131 150 172 183 182 198 215 230 246
284 316 335 20 53 75 93 82 75 88 104 111 116 122 129 132 134 134 140 134 133 135 139 137 123 123 122 119 118 121 122 133 136 138 147 147 141 136 127 114 111 132 190 192 192 200 204 228 241
329 336 333 342 52 95 88 61 69 115 109 110 115 119 112 123 130 150 154 142 141 140 134 131 122 118 120 120 122 120 129 133 132 139 142 137 130 127 122 117 119 147 174 162 160 120 85 280 288
347 345 320 316 27 56 86 91 94 110 111 108 114 117 121 120 124 134 130 132 136 135 129 130 129 122 118 118 117 121 135 138 139 138 136 134 133 129 123 123 119 108 89 93 109 74 58 354 315
348 279 271 312 10 76 92 112 113 106 109 112 123 132 132 121 99 109 127 127 128 127 123 119 126 124 119 114 108 115 124 133 138 135 132 130 131 130 126 119 107 92 77 56 56 69 88 350 317
257 261 267 272 31 91 100 119 118 112 118 133 144 153 150 152 144 140 136 135 132 127 124 128 129 123 118 107 101 94 91 105 127 136 139 136 131 128 119 109 96 92 80 53 38 39 21 314 305
238 241 267 254 145 101 116 128 146 129 138 155 167 171 173 182 171 159 149 145 134 127 131 137 134 133 125 114 110 110 112 110 112 132 138 136 129 122 116 109 99 93 86 72 47 42 8 344 3
235 112 356 66 104 113 125 119 157 160 172 178 171 175 181 182 171 164 159 147 143 148 145 140 138 137 135 131 129 132 125 106 104 86 88 103 114 125 129 128 126 109 89 55 41 54 36 343 24
300 175 166 152 96 78 109 50 233 184 159 173 174 186 183 179 173 167 163 159 153 154 156 152 148 141 138 127 103 85 70 65 55 47 40 40 119 140 146 150 138 126 115 100 61 81 106 348 330
272 197 143 135 118 85 98 177 262 198 166 177 183 188 191 180 173 168 169 165 163 164 159 147 148 142 137 123 114 115 115 116 143 167 63 358 24 93 135 140 133 125 120 111 80 103 121 126 312
170 122 100 104 110 79 35 93 286 180 182 189 191 191 191 183 175 173 176 173 167 161 154 153 149 145 142 130 126 119 115 126 117 80 62 39 25 46 85 110 117 117 117 117 94 64 57 165 196
133 83 57 50 68 49 305 110 272 217 199 187 189 186 186 182 176 175 175 166 163 162 156 151 148 148 142 132 128 129 129 123 104 83 75 48 27 26 59 92 99 111 121 153 219 262 281 254 237
103 88 35 3 19 274 260 178 252 236 193 181 187 187 183 178 175 175 173 171 171 169 163 158 152 150 146 137 139 141 138 132 133 132 119 101 65 46 50 80 95 103 211 232 206 279 292 281 272
189 141 159 205 208 271 303 243 260 250 190 179 182 184 182 179 179 180 179 177 176 173 168 161 158 157 155 150 153 151 143 140 146 152 148 148 160 170 155 117 111 78 302 297 261 273 276 271 276
167 179 167 136 120 99 289 290 310 142 158 174 178 180 185 185 184 184 182 178 174 172 172 167 162 161 164 163 159 156 156 156 164 168 160 166 182 181 165 158 206 292 288 278 269 262 272 279 273
164 155 94 109 139 183 268 261 230 201 189 191 187 187 192 190 187 184 180 175 172 170 168 164 164 168 172 170 166 164 168 171 173 169 169 177 188 185 188 226 254 270 275 272 261 262 265 269 275
87 91 112 123 149 153 210 258 219 200 194 192 199 196 193 189 187 182 176 170 165 162 163 166 170 169 171 172 168 163 172 172 165 164 177 184 196 203 213 233 244 254 261 264 257 259 263 264 274
168 168 145 146 194 164 173 256 243 193 192 192 197 199 194 185 178 172 167 163 163 165 168 171 174 174 176 174 170 172 173 168 167 179 191 192 201 214 221 229 239 250 253 250 245 257 262 256 262
Height
1531 1532 1533 1533 1534 1539 1540 1528 1518 1511 1509 1507 1505 1505 1508 1512 1517 1526 1523 1524 1528 1531 1535 1539 1541 1542 1544 1545 1547 1548 1549 1551 1552 1553 1554 1555 1556 1557 1558 1559 1560 1561 1562 1563 1563 1564 1564 1565 1565
1531 1533 1534 1534 1538 1548 1541 1522 1514 1508 1509 1507 1507 1507 1508 1513 1515 1519 1521 1526 1529 1532 1536 1539 1541 1543 1545 1546 1548 1549 1550 1552 1553 1554 1555 1556 1557 1558 1559 1560 1561 1562 1563 1564 1564 1565 1566 1566 1567
1532 1533 1535 1535 1540 1543 1534 1516 1509 1506 1507 1506 1508 1510 1512 1516 1519 1520 1523 1526 1531 1533 1537 1540 1542 1544 1545 1547 1548 1550 1551 1552 1554 1555 1556 1557 1558 1559 1560 1561 1562 1563 1564 1564 1565 1566 1567 1568 1568
1532 1534 1535 1538 1538 1526 1519 1509 1505 1505 1507 1506 1507 1512 1516 1519 1520 1522 1525 1529 1532 1535 1538 1540 1543 1545 1546 1548 1549 1551 1552 1553 1555 1556 1557 1558 1559 1559 1560 1561 1562 1563 1564 1565 1566 1567 1568 1569 1569
1531 1532 1536 1539 1530 1517 1510 1505 1505 1505 1507 1510 1509 1514 1520 1521 1521 1524 1527 1530 1533 1536 1539 1541 1544 1545 1547 1548 1550 1552 1553 1554 1555 1556 1558 1558 1559 1560 1561 1562 1563 1564 1565 1566 1567 1568 1569 1570 1570
1530 1531 1540 1540 1526 1513 1508 1505 1505 1506 1508 1511 1513 1517 1524 1524 1524 1526 1529 1532 1535 1537 1540 1542 1544 1546 1548 1549 1551 1552 1553 1555 1556 1557 1558 1559 1560 1561 1562 1563 1564 1564 1565 1566 1567 1568 1569 1570 1571
1530 1531 1534 1530 1523 1514 1508 1505 1506 1506 1507 1510 1511 1516 1523 1525 1525 1526 1530 1533 1536 1538 1541 1543 1545 1546 1548 1550 1551 1553 1554 1555 1556 1557 1559 1560 1561 1562 1562 1563 1564 1565 1566 1566 1567 1568 1569 1570 1571
1526 1528 1530 1527 1522 1516 1508 1506 1508 1508 1510 1512 1511 1514 1519 1523 1526 1528 1531 1534 1537 1540 1542 1543 1545 1547 1548 1550 1552 1553 1554 1556 1557 1558 1559 1560 1561 1562 1563 1564 1564 1565 1566 1567 1567 1568 1569 1570 1571
1525 1531 1534 1525 1519 1514 1507 1507 1509 1510 1510 1512 1512 1512 1514 1521 1525 1528 1531 1535 1538 1540 1542 1544 1545 1546 1548 1550 1551 1553 1554 1556 1556 1557 1559 1560 1561 1561 1562 1563 1564 1565 1566 1566 1567 1568 1569 1570 1571
1520 1530 1523 1512 1509 1508 1506 1506 1509 1512 1512 1513 1514 1515 1518 1521 1525 1527 1530 1533 1537 1540 1542 1544 1545 1546 1547 1549 1551 1552 1554 1555 1556 1557 1559 1560 1561 1561 1562 1563 1564 1565 1565 1566 1566 1567 1568 1569 1570
1515 1518 1511 1508 1505 1504 1505 1506 1508 1509 1513 1513 1513 1515 1517 1521 1524 1527 1530 1532 1536 1539 1541 1543 1545 1546 1547 1548 1550 1551 1553 1555 1556 1557 1558 1559 1560 1561 1561 1562 1563 1564 1564 1565 1565 1566 1567 1567 1568
1512 1509 1507 1506 1503 1503 1504 1506 1509 1509 1512 1512 1513 1516 1519 1521 1523 1525 1528 1532 1536 1538 1540 1543 1544 1545 1546 1548 1549 1551 1552 1554 1555 1556 1557 1558 1559 1560 1561 1561 1562 1563 1563 1564 1565 1565 1565 1566 1566
1508 1507 1505 1505 1503 1504 1505 1507 1510 1513 1513 1514 1514 1517 1520 1523 1523 1526 1530 1533 1535 1537 1540 1543 1544 1544 1545 1547 1549 1550 1552 1553 1554 1555 1556 1557 1558 1559 1560 1560 1561 1561 1562 1562 1563 1563 1564 1564 1564
1507 1505 1504 1503 1502 1504 1506 1510 1512 1516 1515 1514 1516 1518 1520 1523 1524 1527 1530 1532 1535 1538 1540 1543 1544 1545 1546 1547 1549 1550 1551 1552 1554 1555 1556 1557 1557 1558 1558 1559 1559 1560 1561 1561 1561 1561 1561 1561 1562
1506 1506 1505 1503 1502 1505 1507 1515 1518 1518 1517 1517 1518 1520 1521 1523 1524 1527 1530 1531 1534 1538 1541 1542 1544 1545 1546 1547 1549 1550 1551 1552 1554 1555 1555 1556 1556 1557 1557 1557 1558 1558 1559 1559 1559 1559 1559 1559 1559
1507 1511 1515 1506 1503 1505 1511 1526 1523 1521 1520 1520 1521 1522 1523 1524 1524 1526 1529 1532 1535 1538 1541 1543 1544 1545 1546 1547 1548 1550 1551 1552 1553 1554 1555 1555 1555 1556 1556 1556 1557 1557 1557 1557 1557 1557 1556 1556 1556
1517 1522 1518 1510 1505 1506 1512 1524 1523 1522 1523 1522 1522 1525 1526 1526 1526 1527 1529 1532 1535 1538 1540 1542 1544 1545 1546 1547 1549 1550 1550 1551 1552 1553 1554 1554 1554 1555 1555 1555 1556 1556 1556 1556 1555 1555 1555 1554 1554
1523 1519 1516 1514 1509 1509 1516 1521 1520 1521 1522 1523 1524 1526 1528 1529 1528 1529 1531 1534 1536 1538 1540 1542 1544 1545 1546 1547 1548 1550 1550 1551 1552 1553 1553 1553 1553 1554 1554 1554 1554 1554 1554 1554 1554 1553 1553 1553 1552
1508 1512 1515 1511 1507 1512 1517 1520 1520 1519 1521 1523 1524 1525 1527 1529 1530 1530 1532 1534 1536 1538 1540 1542 1543 1544 1546 1547 1548 1549 1550 1551 1552 1552 1553 1552 1552 1553 1553 1553 1553 1553 1553 1552 1552 1551 1551 1551 1550
1504 1511 1514 1512 1508 1513 1519 1521 1519 1519 1520 1521 1522 1524 1526 1529 1530 1531 1532 1534 1536 1538 1540 1541 1543 1544 1546 1547 1548 1549 1550 1551 1551 1552 1552 1552 1551 1552 1552 1552 1551 1551 1551 1550 1550 1549 1549 1549 1548
1505 1509 1510 1513 1513 1514 1520 1527 1522 1520 1520 1521 1522 1523 1525 1527 1528 1530 1532 1534 1536 1538 1539 1541 1542 1544 1545 1547 1548 1549 1549 1550 1551 1551 1551 1551 1551 1550 1550 1550 1550 1549 1549 1548 1548 1547 1547 1547 1547
1509 1500 1501 1507 1518 1528 1524 1538 1526 1521 1521 1521 1521 1523 1524 1526 1528 1530 1532 1534 1535 1537 1539 1541 1542 1544 1545 1546 1547 1548 1548 1549 1550 1550 1550 1549 1549 1549 1548 1548 1548 1547 1547 1546 1546 1545 1544 1544 1544
1502 1499 1502 1509 1519 1528 1528 1535 1531 1521 1522 1521 1521 1522 1523 1524 1527 1529 1531 1533 1535 1537 1539 1540 1542 1543 1544 1545 1546 1547 1547 1548 1548 1548 1548 1547 1547 1547 1546 1546 1546 1545 1545 1544 1543 1542 1542 1541 1541
1495 1503 1510 1517 1525 1539 1532 1535 1533 1523 1518 1517 1518 1520 1521 1523 1526 1529 1531 1533 1535 1537 1538 1540 1541 1542 1543 1544 1545 1545 1546 1546 1546 1546 1546 1545 1545 1545 1544 1544 1543 1543 1542 1541 1540 1539 1539 1538 1538
1496 1515 1533 1537 1545 1544 1529 1531 1528 1510 1508 1511 1514 1517 1519 1522 1525 1527 1530 1532 1533 1535 1537 1538 1540 1541 1542 1543 1544 1544 1544 1544 1544 1544 1544 1543 1543 1542 1542 1542 1541 1540 1539 1538 1537 1536 1536 1535 1535
1497 1509 1532 1542 1546 1543 1531 1531 1518 1503 1502 1506 1510 1514 1517 1520 1522 1525 1527 1529 1531 1533 1535 1537 1538 1540 1541 1542 1542 1542 1542 1542 1542 1542 1542 1541 1541 1540 1540 1539 1538 1538 1537 1535 1534 1533 1533 1532 1531
1496 1504 1507 1526 1535 1543 1536 1524 1511 1501 1503 1505 1508 1512 1514 1516 1519 1522 1525 1527 1529 1531 1533 1535 1537 1538 1539 1540 1540 1540 1540 1540 1540 1540 1539 1539 1538 1538 1537 1536 1535 1534 1533 1532 1531 1530 1530 1529 1528
1488 1495 1511 1525 1540 1546 1538 1530 1523 1509 1505 1504 1506 1508 1510 1513 1516 1519 1522 1524 1527 1529 1531 1533 1535 1536 1537 1538 1538 1538 1538 1538 1538 1538 1537 1537 1536 1535 1534 1533 1532 1531 1530 1529 1528 1527 1527 1526 1525
1492 1497 1506 1519 1524 1540 1546 1531 1499 1499 1498 1500 1501 1503 1505 1508 1512 1515 1518 1522 1524 1527 1529 1531 1533 1534 1535 1535 1536 1536 1536 1536 1535 1535 1535 1534 1533 1533 1532 1531 1529 1528 1527 1526 1525 1524 1524 1523 1522
1486 1492 1501 1517 1522 1525 1531 1521 1485 1487 1490 1493 1495 1498 1501 1504 1508 1511 1515 1519 1522 1524 1526 1528 1530 1531 1532 1533 1533 1534 1533 1533 1533 1533 1532 1531 1531 1530 1529 1528 1527 1526 1525 1523 1522 1521 1520 1519 1519